Time,TemperatureF,DewpointF,PressureIn,WindDirection,WindDirectionDegrees,WindSpeedMPH,WindSpeedGustMPH,Humidity,HourlyPrecipIn,Conditions,Clouds,dailyrainin,SoftwareType,DateUTC
2013-02-13 00:01:00,28.0,22.0,29.91,NW,311,0.0,0.0,79,0.00,,,0.00,,2013-02-13 05:01:00,
2013-02-13 00:12:00,28.0,23.0,29.90,NW,312,0.0,0.0,80,0.00,,,0.00,,2013-02-13 05:12:00,
2013-02-13 00:22:00,28.0,23.0,29.90,NW,312,0.0,0.0,80,0.00,,,0.00,,2013-02-13 05:22:00,
2013-02-13 00:32:00,27.0,22.0,29.90,NW,311,0.0,0.0,82,0.00,,,0.00,,2013-02-13 05:32:00,
2013-02-13 00:42:00,27.0,22.0,29.90,NW,311,0.0,0.0,82,0.00,,,0.00,,2013-02-13 05:42:00,
2013-02-13 00:52:00,27.0,22.0,29.90,NW,311,0.0,0.0,82,0.00,,,0.00,,2013-02-13 05:52:00,
2013-02-13 01:02:00,26.0,22.0,29.91,NW,311,0.0,0.0,83,0.00,,,0.00,,2013-02-13 06:02:00,
2013-02-13 01:11:00,27.0,22.0,29.91,NW,311,0.0,0.0,82,0.00,,,0.00,,2013-02-13 06:11:00,
2013-02-13 01:21:00,27.0,22.0,29.91,NW,311,0.0,0.0,82,0.00,,,0.00,,2013-02-13 06:21:00,
2013-02-13 01:32:00,26.0,22.0,29.91,NW,311,0.0,0.0,83,0.00,,,0.00,,2013-02-13 06:32:00,
2013-02-13 01:42:00,27.0,23.0,29.90,NW,311,0.0,0.0,83,0.00,,,0.00,,2013-02-13 06:42:00,
2013-02-13 01:52:00,27.0,23.0,29.90,NW,311,0.0,0.0,83,0.00,,,0.00,,2013-02-13 06:52:00,
2013-02-13 02:02:00,27.0,22.0,29.90,NW,308,2.0,3.0,81,0.00,,,0.00,,2013-02-13 07:02:00,
2013-02-13 02:11:00,28.0,22.0,29.89,NW,306,0.0,0.0,77,0.00,,,0.00,,2013-02-13 07:11:00,
2013-02-13 02:22:00,28.0,22.0,29.89,NW,306,0.0,0.0,77,0.00,,,0.00,,2013-02-13 07:22:00,
2013-02-13 02:32:00,28.0,22.0,29.90,NW,306,0.0,0.0,77,0.00,,,0.00,,2013-02-13 07:32:00,
2013-02-13 02:42:00,29.0,23.0,29.89,NW,306,0.0,0.0,77,0.00,,,0.00,,2013-02-13 07:42:00,
2013-02-13 02:52:00,29.0,23.0,29.89,NW,306,0.0,0.0,77,0.00,,,0.00,,2013-02-13 07:52:00,
2013-02-13 03:01:00,29.0,23.0,29.90,NW,306,1.0,3.0,77,0.00,,,0.00,,2013-02-13 08:01:00,
2013-02-13 03:11:00,29.0,22.0,29.89,NW,310,0.0,4.0,75,0.00,,,0.00,,2013-02-13 08:11:00,
2013-02-13 03:21:00,29.0,22.0,29.89,NW,310,0.0,4.0,75,0.00,,,0.00,,2013-02-13 08:21:00,
2013-02-13 03:32:00,29.0,22.0,29.89,WNW,296,1.0,4.0,75,0.00,,,0.00,,2013-02-13 08:32:00,
2013-02-13 03:43:00,29.0,22.0,29.89,WNW,296,1.0,4.0,75,0.00,,,0.00,,2013-02-13 08:43:00,
2013-02-13 03:52:00,28.0,22.0,29.88,NW,305,0.0,3.0,77,0.00,,,0.00,,2013-02-13 08:52:00,
2013-02-13 04:01:00,28.0,21.0,29.88,NW,304,0.0,5.0,76,0.00,,,0.00,,2013-02-13 09:01:00,
2013-02-13 04:11:00,28.0,21.0,29.88,NW,304,0.0,5.0,76,0.00,,,0.00,,2013-02-13 09:11:00,
2013-02-13 04:21:00,28.0,21.0,29.87,NW,323,0.0,5.0,76,0.00,,,0.00,,2013-02-13 09:21:00,
2013-02-13 04:31:00,28.0,22.0,29.87,NNW,329,0.0,5.0,77,0.00,,,0.00,,2013-02-13 09:31:00,
2013-02-13 04:42:00,28.0,22.0,29.87,NNW,331,0.0,5.0,77,0.00,,,0.00,,2013-02-13 09:42:00,
2013-02-13 04:52:00,28.0,22.0,29.87,NNW,331,0.0,5.0,77,0.00,,,0.00,,2013-02-13 09:52:00,
2013-02-13 05:01:00,27.0,21.0,29.87,NNW,328,1.0,4.0,77,0.00,,,0.00,,2013-02-13 10:01:00,
2013-02-13 05:11:00,27.0,20.0,29.87,NW,326,0.0,0.0,76,0.00,,,0.00,,2013-02-13 10:11:00,
2013-02-13 05:21:00,27.0,20.0,29.87,NW,326,0.0,0.0,76,0.00,,,0.00,,2013-02-13 10:21:00,
2013-02-13 05:32:00,27.0,20.0,29.86,NW,326,0.0,0.0,76,0.00,,,0.00,,2013-02-13 10:32:00,
2013-02-13 05:42:00,27.0,20.0,29.86,WNW,287,0.0,0.0,76,0.00,,,0.00,,2013-02-13 10:42:00,
2013-02-13 05:52:00,27.0,20.0,29.86,WNW,287,0.0,0.0,76,0.00,,,0.00,,2013-02-13 10:52:00,
2013-02-13 06:01:00,27.0,21.0,29.86,WNW,287,0.0,0.0,77,0.00,,,0.00,,2013-02-13 11:01:00,
2013-02-13 06:11:00,27.0,21.0,29.86,WNW,287,0.0,0.0,77,0.00,,,0.00,,2013-02-13 11:11:00,
2013-02-13 06:22:00,27.0,21.0,29.85,WNW,288,0.0,2.0,77,0.00,,,0.00,,2013-02-13 11:22:00,
2013-02-13 06:32:00,27.0,21.0,29.85,WNW,301,2.0,5.0,77,0.00,,,0.00,,2013-02-13 11:32:00,
2013-02-13 06:42:00,26.0,20.0,29.85,WNW,295,1.0,4.0,77,0.00,,,0.00,,2013-02-13 11:42:00,
2013-02-13 06:52:00,26.0,20.0,29.85,WNW,295,1.0,4.0,77,0.00,,,0.00,,2013-02-13 11:52:00,
2013-02-13 07:02:00,26.0,20.0,29.84,WNW,298,0.0,2.0,77,0.00,,,0.00,,2013-02-13 12:02:00,
2013-02-13 07:11:00,27.0,21.0,29.84,North,5,2.0,7.0,77,0.00,,,0.00,,2013-02-13 12:11:00,
2013-02-13 07:22:00,27.0,21.0,29.84,North,5,2.0,7.0,77,0.00,,,0.00,,2013-02-13 12:22:00,
2013-02-13 07:32:00,26.0,20.0,29.84,NNE,19,3.0,5.0,77,0.00,,,0.00,,2013-02-13 12:32:00,
2013-02-13 07:42:00,26.0,20.0,29.84,North,350,0.0,0.0,77,0.00,,,0.00,,2013-02-13 12:42:00,
2013-02-13 07:52:00,26.0,20.0,29.84,North,350,0.0,0.0,77,0.00,,,0.00,,2013-02-13 12:52:00,
2013-02-13 08:02:00,26.0,20.0,29.84,North,355,1.0,3.0,77,0.00,,,0.00,,2013-02-13 13:02:00,
2013-02-13 08:11:00,26.0,20.0,29.84,North,355,0.0,0.0,77,0.00,,,0.00,,2013-02-13 13:11:00,
2013-02-13 08:21:00,26.0,20.0,29.84,North,355,0.0,0.0,77,0.00,,,0.00,,2013-02-13 13:21:00,
2013-02-13 08:32:00,26.0,20.0,29.83,North,9,0.0,3.0,77,0.00,,,0.00,,2013-02-13 13:32:00,
2013-02-13 08:42:00,26.0,20.0,29.83,ENE,64,3.0,8.0,77,0.00,,,0.00,,2013-02-13 13:42:00,
2013-02-13 08:52:00,26.0,20.0,29.83,ENE,64,3.0,8.0,77,0.00,,,0.00,,2013-02-13 13:52:00,
2013-02-13 09:01:00,26.0,19.0,29.83,NE,55,0.0,9.0,76,0.00,,,0.00,,2013-02-13 14:01:00,
2013-02-13 09:11:00,26.0,19.0,29.82,ENE,70,2.0,4.0,76,0.00,,,0.00,,2013-02-13 14:11:00,
2013-02-13 09:21:00,26.0,19.0,29.82,ENE,70,2.0,4.0,76,0.00,,,0.00,,2013-02-13 14:21:00,
2013-02-13 09:32:00,26.0,20.0,29.81,East,83,2.0,5.0,77,0.00,,,0.00,,2013-02-13 14:32:00,
2013-02-13 09:42:00,27.0,21.0,29.80,NE,40,0.0,5.0,77,0.00,,,0.00,,2013-02-13 14:42:00,
2013-02-13 09:52:00,27.0,21.0,29.80,NE,40,0.0,5.0,77,0.00,,,0.00,,2013-02-13 14:52:00,
2013-02-13 10:01:00,27.0,21.0,29.81,East,101,0.0,7.0,77,0.00,,,0.00,,2013-02-13 15:01:00,
2013-02-13 10:11:00,27.0,20.0,29.82,ESE,104,0.0,6.0,75,0.00,,,0.00,,2013-02-13 15:11:00,
2013-02-13 10:21:00,27.0,20.0,29.82,ESE,104,0.0,6.0,75,0.00,,,0.00,,2013-02-13 15:21:00,
2013-02-13 10:32:00,27.0,20.0,29.83,ESE,104,0.0,3.0,76,0.00,,,0.00,,2013-02-13 15:32:00,
2013-02-13 10:42:00,27.0,20.0,29.83,ESE,104,0.0,3.0,76,0.00,,,0.00,,2013-02-13 15:42:00,
2013-02-13 10:52:00,27.0,20.0,29.82,ESE,104,0.0,0.0,74,0.00,,,0.00,,2013-02-13 15:52:00,
2013-02-13 11:01:00,27.0,20.0,29.82,East,99,0.0,5.0,75,0.00,,,0.00,,2013-02-13 16:01:00,
2013-02-13 11:11:00,28.0,21.0,29.82,East,98,0.0,0.0,75,0.00,,,0.00,,2013-02-13 16:11:00,
2013-02-13 11:21:00,28.0,21.0,29.82,East,98,0.0,0.0,75,0.00,,,0.00,,2013-02-13 16:21:00,
2013-02-13 11:32:00,29.0,21.0,29.82,East,99,0.0,0.0,73,0.00,,,0.00,,2013-02-13 16:32:00,
2013-02-13 11:42:00,29.0,21.0,29.82,East,99,0.0,0.0,73,0.00,,,0.00,,2013-02-13 16:42:00,
2013-02-13 11:52:00,29.0,21.0,29.81,ESE,117,0.0,0.0,73,0.00,,,0.00,,2013-02-13 16:52:00,
2013-02-13 12:01:00,28.0,21.0,29.81,ESE,116,0.0,0.0,74,0.00,,,0.00,,2013-02-13 17:01:00,
2013-02-13 12:11:00,28.0,21.0,29.81,ESE,116,0.0,0.0,74,0.00,,,0.00,,2013-02-13 17:11:00,
2013-02-13 12:21:00,29.0,21.0,29.80,NW,319,0.0,5.0,73,0.00,,,0.00,,2013-02-13 17:21:00,
2013-02-13 12:32:00,29.0,21.0,29.79,West,277,0.0,3.0,73,0.00,,,0.00,,2013-02-13 17:32:00,
2013-02-13 12:42:00,29.0,21.0,29.79,West,277,0.0,3.0,73,0.00,,,0.00,,2013-02-13 17:42:00,
2013-02-13 12:52:00,30.0,22.0,29.79,WSW,257,3.0,8.0,71,0.00,,,0.00,,2013-02-13 17:52:00,
2013-02-13 13:02:00,30.0,21.0,29.79,WNW,282,4.0,6.0,69,0.00,,,0.00,,2013-02-13 18:02:00,
2013-02-13 13:11:00,31.0,22.0,29.79,WSW,244,4.0,12.0,69,0.00,,,0.00,,2013-02-13 18:11:00,
2013-02-13 13:23:00,31.0,22.0,29.79,WSW,244,4.0,12.0,69,0.00,,,0.00,,2013-02-13 18:23:00,
2013-02-13 13:32:00,30.0,21.0,29.79,WSW,253,2.0,6.0,70,0.00,,,0.00,,2013-02-13 18:32:00,
2013-02-13 13:42:00,30.0,21.0,29.79,WSW,253,2.0,6.0,70,0.00,,,0.00,,2013-02-13 18:42:00,
2013-02-13 13:52:00,31.0,22.0,29.78,SW,227,3.0,8.0,69,0.00,,,0.00,,2013-02-13 18:52:00,
2013-02-13 14:01:00,31.0,22.0,29.77,WSW,246,0.0,6.0,69,0.00,,,0.00,,2013-02-13 19:01:00,
2013-02-13 14:11:00,32.0,23.0,29.77,SSW,210,2.0,11.0,69,0.00,,,0.00,,2013-02-13 19:11:00,
2013-02-13 14:21:00,32.0,23.0,29.77,SSW,210,2.0,11.0,69,0.00,,,0.00,,2013-02-13 19:21:00,
2013-02-13 14:32:00,32.0,23.0,29.77,SW,223,3.0,10.0,69,0.00,,,0.00,,2013-02-13 19:32:00,
2013-02-13 14:42:00,32.0,23.0,29.77,SW,223,3.0,10.0,69,0.00,,,0.00,,2013-02-13 19:42:00,
2013-02-13 14:52:00,33.0,23.0,29.75,WSW,249,3.0,7.0,67,0.00,,,0.00,,2013-02-13 19:52:00,
2013-02-13 15:02:00,33.0,23.0,29.76,WSW,250,1.0,9.0,67,0.00,,,0.00,,2013-02-13 20:02:00,
2013-02-13 15:11:00,34.0,23.0,29.74,SW,235,4.0,7.0,65,0.00,,,0.00,,2013-02-13 20:11:00,
2013-02-13 15:21:00,34.0,23.0,29.74,SW,235,4.0,7.0,65,0.00,,,0.00,,2013-02-13 20:21:00,
2013-02-13 15:32:00,34.0,24.0,29.74,SW,231,5.0,7.0,66,0.00,,,0.00,,2013-02-13 20:32:00,
2013-02-13 15:42:00,34.0,24.0,29.75,WSW,241,4.0,10.0,66,0.00,,,0.00,,2013-02-13 20:42:00,
2013-02-13 15:52:00,34.0,24.0,29.75,WSW,241,4.0,10.0,66,0.00,,,0.00,,2013-02-13 20:52:00,
2013-02-13 16:01:00,34.0,24.0,29.74,SW,221,4.0,7.0,66,0.00,,,0.00,,2013-02-13 21:01:00,
2013-02-13 16:11:00,34.0,24.0,29.74,SW,221,4.0,7.0,66,0.00,,,0.00,,2013-02-13 21:11:00,
2013-02-13 16:21:00,34.0,24.0,29.74,SW,218,2.0,7.0,66,0.00,,,0.00,,2013-02-13 21:21:00,
2013-02-13 16:31:00,34.0,23.0,29.74,WSW,238,3.0,7.0,65,0.00,,,0.00,,2013-02-13 21:31:00,
2013-02-13 16:42:00,35.0,24.0,29.73,SW,236,3.0,8.0,65,0.00,,,0.00,,2013-02-13 21:42:00,
2013-02-13 16:52:00,35.0,24.0,29.73,SW,236,3.0,8.0,65,0.00,,,0.00,,2013-02-13 21:52:00,
2013-02-13 17:02:00,35.0,24.0,29.75,SW,230,3.0,7.0,64,0.00,,,0.00,,2013-02-13 22:02:00,
2013-02-13 17:11:00,35.0,24.0,29.74,SW,232,2.0,8.0,65,0.00,,,0.00,,2013-02-13 22:11:00,
2013-02-13 17:21:00,35.0,24.0,29.74,SW,232,2.0,8.0,65,0.00,,,0.00,,2013-02-13 22:21:00,
2013-02-13 17:32:00,34.0,24.0,29.74,SW,229,3.0,7.0,67,0.00,,,0.00,,2013-02-13 22:32:00,
2013-02-13 17:42:00,34.0,24.0,29.74,SW,229,3.0,7.0,67,0.00,,,0.00,,2013-02-13 22:42:00,
2013-02-13 17:52:00,34.0,25.0,29.75,SW,227,2.0,8.0,68,0.00,,,0.00,,2013-02-13 22:52:00,
2013-02-13 18:01:00,33.0,24.0,29.75,SW,215,2.0,6.0,70,0.00,,,0.00,,2013-02-13 23:01:00,
2013-02-13 18:11:00,32.0,24.0,29.75,SSW,213,1.0,5.0,73,0.00,,,0.00,,2013-02-13 23:11:00,
2013-02-13 18:21:00,32.0,24.0,29.75,SSW,213,1.0,5.0,73,0.00,,,0.00,,2013-02-13 23:21:00,
2013-02-13 18:32:00,31.0,24.0,29.75,SSW,213,0.0,3.0,74,0.00,,,0.00,,2013-02-13 23:32:00,
2013-02-13 18:42:00,31.0,24.0,29.75,SSW,213,0.0,3.0,74,0.00,,,0.00,,2013-02-13 23:42:00,
2013-02-13 18:52:00,31.0,25.0,29.76,SSW,212,1.0,4.0,77,0.00,,,0.00,,2013-02-13 23:52:00,
2013-02-13 19:02:00,30.0,24.0,29.77,SSW,209,0.0,6.0,78,0.00,,,0.00,,2013-02-14 00:02:00,
2013-02-13 19:11:00,30.0,24.0,29.77,SSW,209,0.0,6.0,78,0.00,,,0.00,,2013-02-14 00:11:00,
2013-02-13 19:22:00,30.0,24.0,29.77,SSW,209,1.0,5.0,79,0.00,,,0.00,,2013-02-14 00:22:00,
2013-02-13 19:32:00,30.0,24.0,29.78,SSW,208,2.0,6.0,79,0.00,,,0.00,,2013-02-14 00:32:00,
2013-02-13 19:42:00,30.0,24.0,29.78,SSW,208,2.0,6.0,79,0.00,,,0.00,,2013-02-14 00:42:00,
2013-02-13 19:52:00,30.0,25.0,29.78,SSW,207,2.0,7.0,80,0.00,,,0.00,,2013-02-14 00:52:00,
2013-02-13 20:01:00,29.0,24.0,29.78,SSW,205,1.0,6.0,81,0.00,,,0.00,,2013-02-14 01:01:00,
2013-02-13 20:11:00,29.0,24.0,29.78,SSW,205,1.0,6.0,81,0.00,,,0.00,,2013-02-14 01:11:00,
2013-02-13 20:21:00,29.0,24.0,29.78,SSW,206,0.0,4.0,81,0.00,,,0.00,,2013-02-14 01:21:00,
2013-02-13 20:32:00,29.0,24.0,29.79,SSW,202,2.0,7.0,81,0.00,,,0.00,,2013-02-14 01:32:00,
2013-02-13 20:41:00,29.0,24.0,29.79,SSW,202,2.0,7.0,81,0.00,,,0.00,,2013-02-14 01:41:00,
2013-02-13 20:52:00,30.0,25.0,29.79,SSW,198,4.0,7.0,80,0.00,,,0.00,,2013-02-14 01:52:00,
2013-02-13 21:02:00,30.0,25.0,29.79,SSW,196,4.0,7.0,80,0.00,,,0.00,,2013-02-14 02:02:00,
2013-02-13 21:11:00,30.0,25.0,29.79,South,184,2.0,8.0,80,0.00,,,0.00,,2013-02-14 02:11:00,
2013-02-13 21:21:00,30.0,25.0,29.79,South,184,2.0,8.0,80,0.00,,,0.00,,2013-02-14 02:21:00,
2013-02-13 21:32:00,29.0,24.0,29.79,South,184,1.0,6.0,81,0.00,,,0.00,,2013-02-14 02:32:00,
2013-02-13 21:41:00,29.0,24.0,29.79,South,184,1.0,6.0,81,0.00,,,0.00,,2013-02-14 02:41:00,
2013-02-13 21:52:00,29.0,24.0,29.79,South,184,1.0,6.0,81,0.00,,,0.00,,2013-02-14 02:52:00,
2013-02-13 22:02:00,29.0,24.0,29.80,South,184,2.0,6.0,81,0.00,,,0.00,,2013-02-14 03:02:00,
2013-02-13 22:11:00,30.0,25.0,29.79,South,177,3.0,10.0,80,0.00,,,0.00,,2013-02-14 03:11:00,
2013-02-13 22:22:00,30.0,25.0,29.79,South,177,3.0,10.0,80,0.00,,,0.00,,2013-02-14 03:22:00,
2013-02-13 22:32:00,30.0,25.0,29.79,South,180,5.0,8.0,80,0.00,,,0.00,,2013-02-14 03:32:00,
2013-02-13 22:42:00,30.0,25.0,29.79,South,180,5.0,8.0,80,0.00,,,0.00,,2013-02-14 03:42:00,
2013-02-13 22:52:00,30.0,25.0,29.79,South,184,3.0,8.0,81,0.00,,,0.00,,2013-02-14 03:52:00,
2013-02-13 23:01:00,30.0,25.0,29.79,South,180,2.0,6.0,81,0.00,,,0.00,,2013-02-14 04:01:00,
2013-02-13 23:12:00,30.0,25.0,29.79,South,179,4.0,7.0,81,0.00,,,0.00,,2013-02-14 04:12:00,
2013-02-13 23:21:00,30.0,25.0,29.79,South,179,4.0,7.0,81,0.00,,,0.00,,2013-02-14 04:21:00,
2013-02-13 23:32:00,30.0,25.0,29.79,South,178,5.0,8.0,81,0.00,,,0.00,,2013-02-14 04:32:00,
2013-02-13 23:42:00,30.0,25.0,29.79,South,178,5.0,8.0,81,0.00,,,0.00,,2013-02-14 04:42:00,
2013-02-13 23:52:00,30.0,25.0,29.80,South,182,4.0,8.0,81,0.00,,,0.00,,2013-02-14 04:52:00,